Date,TemperatureHighF,TemperatureAvgF,TemperatureLowF,DewpointHighF,DewpointAvgF,DewpointLowF,HumidityHigh,HumidityAvg,HumidityLow,PressureMaxIn,PressureMinIn,WindSpeedMaxMPH,WindSpeedAvgMPH,GustSpeedMaxMPH,PrecipitationSumIn
2013-1-1,47.1,40.4,34.5,41.0,21.7,13.3,79,48,36,29.38,29.15,13,5,13,0.59
2013-1-2,42.3,34.0,26.6,16.1,13.1,9.7,56,43,30,29.44,29.35,11,3,11,0.00
2013-1-3,48.9,36.5,25.3,17.8,14.6,9.6,66,43,26,29.56,29.41,13,2,13,0.59
2013-1-4,53.2,43.9,37.2,23.1,18.2,13.5,50,36,26,29.62,29.47,6,1,6,0.59
2013-1-5,53.4,43.0,34.3,32.3,24.7,20.2,75,50,28,29.47,29.29,9,1,9,0.59
2013-1-6,55.8,40.6,30.9,27.9,15.8,7.3,78,40,20,29.50,29.38,13,3,13,0.59
2013-1-7,57.2,40.8,25.7,21.7,15.7,9.4,56,37,24,29.44,29.21,8,1,8,0.59
2013-1-8,48.9,46.5,41.7,44.7,32.2,18.0,93,60,37,29.21,29.06,10,2,10,1.14
2013-1-9,56.5,52.7,46.8,55.1,51.4,44.7,96,95,93,29.23,29.03,10,3,10,0.98
2013-1-10,59.2,53.1,45.7,55.7,43.3,30.2,96,73,35,29.09,29.03,11,2,11,0.59
2013-1-11,71.2,57.8,44.6,55.1,38.2,27.8,78,51,25,29.06,28.88,15,4,15,0.59
2013-1-12,66.9,54.2,34.7,62.3,41.9,15.0,86,65,36,29.09,28.82,18,5,18,0.59
2013-1-13,41.9,34.5,29.3,15.0,9.6,5.8,44,35,28,29.38,29.06,19,7,19,0.59
2013-1-14,43.7,33.7,26.6,12.8,8.3,4.3,43,34,25,29.44,29.32,12,3,12,0.59
2013-1-15,38.8,33.5,29.3,20.2,13.1,5.8,65,43,32,29.35,29.26,13,5,13,0.04
2013-1-16,47.1,34.5,21.9,12.2,7.4,1.9,50,33,20,29.41,29.26,13,3,13,0.00
2013-1-17,58.8,43.8,32.7,21.4,14.4,6.9,43,31,22,29.59,29.35,12,2,12,0.00
2013-1-18,59.9,44.8,29.7,24.3,19.5,14.2,66,39,22,29.59,29.35,12,2,12,0.00
2013-1-19,65.3,50.6,36.1,35.3,26.8,19.8,72,42,23,29.35,29.23,12,2,12,0.00
2013-1-20,66.7,49.8,37.0,46.2,28.6,19.4,84,50,20,29.32,29.18,8,1,8,0.00
2013-1-21,55.2,44.7,37.4,29.9,18.9,12.4,68,37,23,29.41,29.23,13,3,13,0.00
2013-1-22,67.1,49.1,33.8,36.8,23.0,10.9,61,37,23,29.41,29.26,8,1,8,0.00
2013-1-23,72.7,60.1,49.3,44.0,37.2,33.1,76,45,24,29.38,29.26,12,4,12,0.00
2013-1-24,79.0,62.0,50.9,55.1,38.3,26.7,85,47,21,29.29,29.18,9,2,10,0.00
2013-1-25,51.6,47.9,45.0,42.6,29.5,23.3,83,50,38,29.32,29.18,10,3,10,0.00
2013-1-26,60.4,50.9,45.0,46.2,32.6,23.3,84,51,34,29.35,29.21,6,2,6,0.00
2013-1-27,75.9,63.1,50.9,59.1,46.1,34.9,94,60,24,29.21,29.06,17,4,17,0.00
2013-1-28,80.2,70.6,63.5,60.5,48.1,39.2,85,48,24,29.12,29.00,17,5,17,0.00
2013-1-29,80.8,65.3,47.8,53.7,41.2,16.1,80,43,22,29.00,28.61,22,6,22,0.28
2013-1-30,52.0,44.6,34.7,20.3,12.6,1.8,39,27,18,29.26,28.82,22,7,22,0.00
2013-1-31,66.2,48.7,33.3,19.0,11.7,5.9,32,23,15,29.41,29.21,15,3,15,0.00
2013-2-1,57.6,43.5,28.2,22.7,12.9,2.5,38,29,22,29.50,29.26,12,3,12,0.00
2013-2-2,66.0,53.4,42.1,29.4,21.9,13.5,50,30,18,29.44,29.23,13,3,13,0.00
2013-2-3,69.8,52.6,35.6,24.1,17.5,12.5,47,27,14,29.44,29.12,10,2,10,0.00
2013-2-4,75.0,61.2,51.8,49.5,33.2,14.4,78,37,20,29.12,28.91,10,3,10,0.00
2013-2-5,72.5,62.0,55.9,61.5,47.8,36.6,88,64,30,29.15,29.00,8,1,8,0.00
2013-2-6,76.3,63.5,55.9,61.0,46.5,31.9,87,60,23,29.15,29.00,12,3,12,0.00
2013-2-7,77.5,64.0,53.2,50.9,37.5,23.9,74,41,16,29.23,28.97,19,6,19,0.00
2013-2-8,62.2,50.7,40.1,27.2,17.7,8.2,44,28,16,29.35,29.23,13,4,15,0.00
2013-2-9,59.4,51.2,46.2,57.8,36.4,15.1,95,60,28,29.23,28.85,13,4,13,0.00
2013-2-10,66.9,56.9,47.3,63.2,25.9,11.6,95,37,15,29.15,28.79,28,4,28,0.67
2013-2-11,60.3,51.6,45.1,27.6,20.0,15.4,48,29,19,29.26,29.12,9,2,9,0.00
2013-2-12,54.5,47.3,41.2,47.1,35.0,23.0,86,64,43,29.15,28.97,17,4,17,0.43
2013-2-13,55.9,44.6,38.1,24.3,21.1,15.1,52,40,22,29.26,29.15,13,4,14,0.00
2013-2-14,66.2,50.3,36.3,30.0,23.2,15.5,66,38,17,29.21,29.12,10,2,10,0.00
2013-2-15,53.4,46.1,32.2,22.1,14.1,3.8,36,28,19,29.50,29.21,16,4,16,0.00
2013-2-16,55.4,40.2,25.5,16.4,11.7,5.5,49,32,20,29.50,29.26,9,1,9,0.00
2013-2-17,69.8,53.0,36.5,29.1,20.1,14.8,46,29,17,29.26,29.03,15,4,15,0.00
2013-2-18,76.5,60.8,48.6,40.4,27.9,13.5,52,31,15,29.26,28.91,23,7,23,0.00
2013-2-19,61.2,49.4,35.2,24.0,14.0,9.5,41,25,16,29.41,29.23,9,2,9,0.00
2013-2-20,50.4,45.0,42.1,28.9,23.1,17.4,58,42,27,29.26,28.88,10,3,10,0.08
2013-2-21,66.2,52.6,42.3,46.4,27.6,14.6,85,44,15,29.06,28.70,20,6,20,0.16
2013-2-22,48.9,38.3,29.3,24.5,13.2,7.9,50,36,26,29.23,29.06,15,4,15,0.00
2013-2-23,53.8,40.2,26.8,19.4,15.2,11.7,58,37,23,29.21,29.03,10,2,10,0.00
2013-2-24,69.4,51.2,31.6,29.7,22.8,13.8,56,35,20,29.03,28.76,13,3,13,0.00
2013-2-25,62.2,50.5,39.2,41.8,25.4,13.1,61,39,19,28.85,28.61,28,7,28,0.00
2013-2-26,57.4,45.2,37.9,20.8,16.6,12.2,40,32,20,29.03,28.85,25,7,25,0.00
2013-2-27,56.1,44.5,34.5,20.5,14.1,7.0,52,31,17,29.35,29.00,20,6,20,0.00
2013-2-28,58.3,44.9,32.5,17.6,12.5,4.5,44,28,17,29.41,29.26,19,6,19,0.00
2013-3-1,57.6,43.0,29.1,19.0,12.7,5.6,43,30,19,29.41,29.26,14,3,14,0.00
2013-3-2,54.9,40.7,30.6,14.5,11.7,8.1,43,31,20,29.53,29.32,17,5,17,0.00
2013-3-3,71.8,54.2,35.1,24.4,16.1,7.7,32,23,16,29.32,28.91,17,5,17,0.00
2013-3-4,85.8,67.1,52.9,31.3,25.9,21.2,35,22,13,28.94,28.76,17,5,17,0.00
2013-3-5,61.0,49.1,39.4,25.1,12.1,2.6,35,23,17,29.47,28.94,24,8,24,0.00
2013-3-6,64.9,45.5,27.9,16.7,9.0,1.6,41,23,15,29.56,29.29,8,2,8,0.00
2013-3-7,70.5,54.1,36.7,21.3,14.2,4.5,29,21,14,29.32,29.21,13,3,13,0.00
2013-3-8,65.8,58.3,51.4,49.1,37.6,20.1,72,47,28,29.26,29.09,10,3,10,0.00
2013-3-9,76.1,64.1,57.9,55.9,48.6,41.6,86,59,32,29.09,28.79,17,4,17,0.79
2013-3-10,60.1,50.5,36.1,55.7,24.0,12.4,86,38,26,29.21,28.88,26,7,26,0.00
2013-3-11,59.7,43.5,30.4,18.5,12.4,6.4,53,30,17,29.23,29.09,15,3,15,0.00
2013-3-12,66.7,51.3,35.6,21.3,14.5,9.9,40,24,15,29.44,29.12,10,2,10,0.00
2013-3-13,69.4,53.5,38.5,25.0,19.3,12.0,45,27,17,29.53,29.41,8,1,8,0.00
2013-3-14,76.8,59.7,43.9,30.0,25.0,18.7,45,28,15,29.44,29.29,13,3,13,0.00
2013-3-15,81.0,66.3,53.2,39.1,30.1,20.3,57,29,14,29.29,29.03,15,4,15,0.00
2013-3-16,83.7,68.1,55.2,39.0,33.5,26.0,51,29,19,29.03,28.85,17,5,17,0.00
2013-3-17,75.7,65.7,56.1,47.8,35.8,28.8,57,35,21,28.94,28.82,14,4,14,0.00
2013-3-18,70.7,62.3,54.3,58.6,33.7,21.1,84,38,22,29.15,28.79,17,4,17,0.00
2013-3-19,73.4,58.4,43.2,29.4,22.7,15.3,41,26,16,29.23,29.09,9,2,9,0.00
2013-3-20,68.4,55.9,42.4,24.1,17.1,9.8,39,23,15,29.41,29.18,12,2,12,0.00
2013-3-21,75.6,61.0,48.0,43.4,26.9,12.5,49,28,20,29.18,28.70,19,4,19,0.00
2013-3-22,62.6,53.8,46.9,55.1,37.2,28.0,82,54,37,28.97,28.70,13,4,13,0.00
2013-3-23,60.1,51.2,45.0,44.2,35.4,31.5,82,56,36,28.97,28.79,14,3,14,0.35
2013-3-24,53.1,44.5,37.2,44.5,15.6,4.5,83,33,21,29.29,28.97,23,8,23,0.35
2013-3-25,54.7,41.3,25.5,13.7,7.8,-0.2,43,26,18,29.50,29.29,17,5,17,0.35
2013-3-26,59.5,43.2,26.6,17.3,9.1,-1.0,41,25,17,29.59,29.38,6,2,9,0.35
2013-3-27,70.9,54.0,35.8,27.5,18.2,9.0,37,25,17,29.41,29.21,15,4,15,0.00
2013-3-28,75.0,61.1,47.1,42.0,35.9,26.7,75,41,24,29.32,29.21,13,3,13,0.00
2013-3-29,81.7,67.4,57.0,48.2,39.6,33.8,71,39,20,29.29,29.12,13,4,13,0.00
2013-3-30,84.4,69.5,52.3,61.7,44.5,37.6,88,46,20,29.18,29.00,10,2,10,0.24
2013-3-31,77.0,66.8,56.8,58.1,40.8,30.8,81,42,21,29.15,28.94,15,3,15,0.00
2013-4-1,80.4,65.2,49.6,53.7,34.3,26.6,78,37,15,29.21,29.09,8,1,8,0.00
2013-4-2,73.4,64.3,54.0,57.8,45.3,28.1,80,52,34,29.15,29.00,17,3,17,0.43
2013-4-3,54.0,48.1,42.8,46.8,39.8,28.1,88,75,37,29.26,29.00,13,4,13,1.34
2013-4-4,52.9,45.1,40.6,39.1,28.8,22.1,88,56,33,29.32,29.23,13,5,13,0.00
2013-4-5,72.0,52.5,36.1,37.2,29.2,22.5,77,45,21,29.35,29.15,8,2,8,0.00
2013-4-6,78.6,64.4,54.3,42.9,35.0,28.1,49,35,22,29.15,28.97,17,4,17,0.00
2013-4-7,75.4,66.8,58.8,51.0,43.5,40.2,72,44,30,29.03,28.88,17,4,17,0.00
2013-4-8,80.4,71.1,63.5,46.5,43.6,40.8,48,38,26,28.91,28.82,17,5,17,0.00
2013-4-9,84.4,73.6,67.5,51.9,46.1,40.8,57,39,23,28.85,28.79,14,4,14,0.00
2013-4-10,72.7,45.8,38.3,50.9,29.6,20.8,78,54,29,29.09,28.85,20,6,20,0.24
2013-4-11,63.3,48.6,38.5,24.6,19.6,13.2,48,33,18,29.09,28.94,13,3,13,0.00
2013-4-12,77.2,59.2,43.3,32.5,26.9,22.4,51,32,15,29.12,29.00,8,1,8,0.00
2013-4-13,79.2,65.3,51.6,33.3,30.3,27.3,47,28,17,29.12,28.94,13,2,13,0.00
2013-4-14,85.6,69.0,53.6,51.2,40.0,30.6,61,37,20,28.94,28.70,11,3,11,0.00
2013-4-15,88.5,76.3,66.6,61.1,49.0,40.1,81,43,19,28.91,28.73,13,4,13,0.00
2013-4-16,90.7,77.7,68.5,55.6,46.6,40.1,63,36,19,29.03,28.88,13,4,13,0.00
2013-4-17,89.2,77.5,70.9,64.0,49.6,40.7,77,40,20,29.03,28.76,13,4,13,0.00
2013-4-18,75.0,57.6,43.3,64.9,31.0,16.0,78,38,25,29.29,28.67,25,6,25,1.02
2013-4-19,64.2,49.1,35.4,22.1,17.5,11.8,56,31,16,29.38,29.26,15,3,15,1.02
2013-4-20,71.8,56.9,41.5,24.4,20.0,14.4,39,25,14,29.29,29.15,15,2,15,1.02
2013-4-21,77.2,60.7,43.7,34.0,29.6,19.2,55,32,20,29.29,29.21,10,2,10,1.02
2013-4-22,81.5,66.1,50.2,45.9,36.4,31.2,69,36,20,29.23,29.00,15,2,15,1.02
2013-4-23,64.6,53.9,39.4,55.8,35.1,22.5,76,50,37,29.29,28.91,18,5,18,0.00
2013-4-24,63.1,49.2,35.4,31.1,20.8,15.9,73,35,18,29.41,29.29,15,4,15,0.04
2013-4-25,75.9,62.4,49.5,30.0,24.1,18.0,36,24,15,29.44,29.26,8,1,8,0.00
2013-4-26,84.4,67.4,58.8,57.1,38.4,24.8,69,35,25,29.26,29.12,11,2,11,0.00
2013-4-27,77.2,68.0,57.4,60.7,43.7,33.5,83,45,22,29.23,29.12,11,2,11,0.00
2013-4-28,84.2,67.5,50.7,52.3,43.7,38.9,80,47,22,29.18,29.00,7,1,7,0.00
2013-4-29,87.8,73.8,58.8,62.7,43.6,33.8,81,38,16,29.03,28.94,10,2,10,0.00
2013-4-30,85.5,71.6,58.1,58.8,43.8,38.4,80,40,20,28.97,28.88,10,2,10,0.00
2013-5-1,86.4,72.3,62.6,60.5,47.9,38.3,83,46,21,29.12,28.91,8,1,8,0.00
2013-5-2,69.3,51.6,43.0,47.4,28.2,18.0,55,41,31,29.44,29.06,22,6,22,0.00
2013-5-3,68.0,52.7,38.7,20.2,17.0,11.3,40,26,15,29.44,29.15,17,5,17,0.00
2013-5-4,75.2,58.6,39.7,25.8,18.6,13.2,41,22,13,29.18,29.03,16,3,16,0.00
2013-5-5,72.3,57.9,43.7,30.2,25.4,17.0,48,30,19,29.29,29.15,13,3,13,0.00
2013-5-6,82.6,63.9,46.0,38.5,32.4,28.3,65,34,16,29.26,29.12,9,1,9,0.00
2013-5-7,87.6,71.7,55.0,44.1,34.1,27.0,55,28,13,29.21,29.06,7,1,7,0.00
2013-5-8,89.4,75.4,61.7,41.0,36.3,31.8,40,26,15,29.12,29.00,13,2,13,0.00
2013-5-9,75.6,68.1,63.1,60.6,49.3,32.4,81,53,25,29.12,29.00,11,1,11,0.31
2013-5-10,85.3,72.7,64.4,67.7,48.5,33.4,88,50,19,29.21,29.00,8,2,8,0.16
2013-5-11,82.6,70.0,58.1,43.2,32.8,22.8,56,28,14,29.32,29.15,12,2,12,0.16
2013-5-12,82.9,67.9,52.9,35.9,27.7,21.0,40,24,14,29.41,29.29,8,1,8,0.16
2013-5-13,91.0,73.1,56.3,35.9,27.7,21.0,26,19,12,29.35,29.26,10,2,10,0.16
2013-5-14,90.9,76.0,60.6,41.0,35.3,28.1,45,25,12,29.29,29.12,11,2,11,0.16
2013-5-15,84.9,74.0,65.1,63.9,48.7,40.5,80,42,23,29.21,28.88,12,3,12,0.16
2013-5-16,89.4,74.4,61.7,60.0,51.6,44.3,83,49,22,28.97,28.88,10,2,10,0.00
2013-5-17,95.9,81.5,71.2,63.9,53.8,43.4,76,44,18,29.00,28.91,14,2,14,0.00
2013-5-18,97.7,83.4,71.4,57.5,48.8,42.0,59,33,16,29.03,28.91,13,3,14,0.00
2013-5-19,97.0,81.7,68.2,55.4,46.4,42.4,62,31,17,28.97,28.82,16,4,16,0.00
2013-5-20,95.7,81.9,71.4,54.1,47.6,41.9,54,32,17,28.94,28.79,17,4,17,0.00
2013-5-21,90.3,73.8,57.2,54.2,48.9,39.7,74,43,21,29.03,28.82,25,3,25,0.31
2013-5-22,89.6,71.2,53.1,62.0,43.7,30.9,85,47,13,29.09,28.97,6,0,6,0.00
2013-5-23,93.4,77.6,67.3,69.0,51.8,43.5,84,45,19,29.21,29.00,9,1,9,0.00
2013-5-24,91.4,77.4,65.5,64.4,52.7,41.0,81,46,20,29.32,29.12,10,1,10,0.20
2013-5-25,88.9,74.5,66.0,62.7,53.1,41.1,81,52,22,29.29,29.18,10,1,10,0.00
2013-5-26,94.8,80.0,70.2,64.6,52.9,43.0,80,45,18,29.23,29.06,12,2,12,0.00
2013-5-27,92.3,79.3,69.6,57.8,49.0,42.1,66,37,19,29.12,28.94,12,3,12,0.00
2013-5-28,92.3,80.1,70.3,53.1,47.1,40.8,54,34,18,29.03,28.88,13,3,13,0.00
2013-5-29,90.7,77.1,72.0,63.8,52.4,45.4,72,44,22,28.94,28.85,13,4,13,0.00
2013-5-30,95.4,82.4,72.3,59.6,51.1,43.5,64,37,18,28.94,28.85,15,4,15,0.00
2013-5-31,96.1,83.8,74.7,58.8,51.2,43.4,56,35,18,28.97,28.85,12,3,12,0.00
2013-6-1,100.4,81.6,71.1,61.7,51.1,43.5,70,36,16,29.12,28.85,14,3,14,0.00
2013-6-2,88.5,76.9,63.7,50.7,37.3,24.6,48,26,13,29.23,29.09,13,2,13,0.00
2013-6-3,95.5,78.1,59.9,44.7,37.8,31.0,52,27,11,29.15,28.97,7,1,7,0.00
2013-6-4,97.3,82.3,67.6,52.2,44.5,38.7,55,29,16,29.09,28.94,11,2,11,0.00
2013-6-5,97.5,82.9,69.8,56.5,46.3,39.7,60,30,16,29.09,28.91,11,1,11,0.00
2013-6-6,83.3,75.8,67.3,51.1,47.1,41.7,56,37,25,29.12,28.97,15,2,15,0.87
2013-6-7,90.0,74.7,60.4,62.3,42.6,28.2,83,40,12,29.18,29.06,9,1,9,0.87
2013-6-8,94.3,78.2,61.0,43.9,39.1,34.5,53,28,14,29.09,28.94,10,1,10,0.87
2013-6-9,93.4,78.0,66.7,65.3,48.4,40.2,85,39,18,29.12,29.00,12,1,12,0.31
2013-6-10,101.8,84.5,67.6,60.5,46.1,32.7,72,33,10,29.15,29.09,11,1,11,0.00
2013-6-11,98.8,85.3,70.9,64.7,48.8,40.5,71,32,15,29.21,29.09,10,2,10,0.00
2013-6-12,99.9,86.4,73.0,62.4,48.9,39.6,66,31,15,29.23,29.12,10,2,10,0.00
2013-6-13,103.3,88.3,72.7,54.1,45.5,38.7,49,26,12,29.23,29.09,8,1,8,0.00
2013-6-14,105.3,87.8,71.8,50.6,44.9,37.9,44,25,12,29.18,29.06,8,0,8,0.00
2013-6-15,99.1,85.0,75.2,51.5,46.8,39.6,43,28,16,29.18,29.09,10,1,10,0.00
2013-6-16,103.3,86.9,72.1,60.3,47.9,37.9,64,31,12,29.21,29.06,10,1,10,0.00
2013-6-17,99.0,83.5,67.8,66.2,50.9,43.3,84,36,16,29.23,29.03,21,1,21,0.71
2013-6-18,92.8,78.5,68.2,65.8,51.6,42.1,80,43,19,29.21,29.06,23,1,23,0.04
2013-6-19,101.5,81.1,68.2,68.1,52.3,43.0,82,43,15,29.18,29.06,8,1,8,0.00
2013-6-20,99.9,85.7,72.5,59.0,47.4,37.9,60,30,13,29.26,29.09,10,2,10,0.04
2013-6-21,99.7,87.4,73.4,57.9,45.4,35.6,57,26,13,29.29,29.18,13,2,13,0.00
2013-6-22,100.6,86.9,70.5,54.2,44.2,37.5,52,25,12,29.26,29.09,11,2,11,0.04
2013-6-23,101.1,87.7,73.8,55.6,44.8,36.1,52,25,12,29.23,29.09,12,2,13,0.04
2013-6-24,101.3,87.8,73.0,55.6,44.1,35.6,53,24,12,29.26,29.12,11,2,11,0.00
2013-6-25,103.3,89.0,75.4,53.1,43.2,31.2,44,23,11,29.21,29.06,14,3,14,0.00
2013-6-26,104.7,89.6,74.5,53.1,43.8,36.6,47,22,12,29.21,29.09,12,3,12,0.00
2013-6-27,107.2,90.5,75.9,52.5,44.0,35.6,42,22,11,29.26,29.12,8,1,8,0.04
2013-6-28,108.3,90.8,76.1,42.6,38.1,32.8,30,17,8,29.21,29.09,13,2,13,0.00
2013-6-29,104.9,88.3,73.0,48.4,39.8,29.2,38,21,9,29.18,29.09,10,1,10,0.04
2013-6-30,97.9,84.3,69.8,49.2,35.2,27.0,48,19,11,29.23,29.06,13,2,13,0.00
2013-7-1,92.3,78.8,65.1,39.5,33.4,27.0,36,21,12,29.32,29.21,11,2,11,0.00
2013-7-2,93.6,78.8,63.0,37.4,32.4,24.4,34,20,11,29.38,29.29,10,1,10,0.00
2013-7-3,97.5,79.6,61.7,38.9,31.1,24.6,33,19,11,29.35,29.26,7,1,7,0.00
2013-7-4,102.4,84.8,67.3,42.6,35.5,30.3,37,19,9,29.32,29.21,8,1,8,0.00
2013-7-5,103.8,86.8,68.7,42.8,35.7,28.1,35,19,9,29.32,29.21,8,1,8,0.00
2013-7-6,104.7,87.7,71.4,43.7,36.4,28.1,33,18,9,29.29,29.21,9,1,9,0.00
2013-7-7,103.5,88.2,72.0,47.9,39.1,31.2,35,20,9,29.38,29.26,8,1,8,0.00
2013-7-8,104.9,88.6,74.3,53.4,44.2,36.3,47,24,12,29.47,29.32,10,2,11,0.00
2013-7-9,105.8,90.5,74.3,53.8,40.5,31.0,47,21,9,29.53,29.35,10,2,10,0.00
2013-7-10,109.6,92.9,78.6,50.2,40.5,30.3,37,18,8,29.47,29.32,9,2,9,0.00
2013-7-11,110.3,90.3,78.1,48.2,42.4,32.8,33,21,8,29.38,29.29,9,2,9,0.00
2013-7-12,107.6,89.9,72.5,53.2,42.9,31.0,50,24,9,29.38,29.29,6,1,6,0.00
2013-7-13,107.8,91.5,77.0,48.2,39.8,29.1,36,18,8,29.41,29.29,9,1,9,0.04
2013-7-14,81.5,71.3,66.7,65.4,52.0,33.0,82,57,19,29.47,29.26,8,0,9,0.47
2013-7-15,74.3,68.3,66.2,67.2,61.6,54.2,86,80,53,29.53,29.38,4,0,4,1.02
2013-7-16,90.1,77.6,69.3,70.2,56.8,43.3,89,55,21,29.65,29.47,8,1,8,0.04
2013-7-17,92.3,78.0,70.5,67.0,56.2,44.4,80,51,20,29.68,29.56,8,1,8,0.63
2013-7-18,99.5,80.1,69.4,71.8,58.1,42.0,84,56,15,29.65,29.47,6,0,8,0.20
2013-7-19,100.0,83.8,71.2,71.6,52.4,38.9,85,43,13,29.53,29.38,9,1,9,0.00
2013-7-20,103.5,84.0,72.7,58.8,49.4,38.7,61,34,12,29.44,29.32,8,1,8,0.00
2013-7-21,105.6,87.0,72.9,62.3,49.6,37.9,67,33,12,29.41,29.32,10,2,10,0.00
2013-7-22,101.3,88.2,75.4,64.7,51.1,38.7,69,33,12,29.47,29.35,12,2,12,0.00
2013-7-23,103.3,89.7,77.2,58.3,47.5,37.9,51,26,13,29.47,29.29,10,2,10,0.00
2013-7-24,102.6,87.5,77.0,53.8,46.2,38.0,44,26,12,29.53,29.32,10,2,10,0.00
2013-7-25,102.6,86.8,74.3,52.7,48.3,38.4,46,29,12,29.53,29.44,9,1,9,0.00
2013-7-26,103.3,84.9,75.4,67.9,51.0,38.7,68,34,12,29.50,29.35,12,2,13,0.47
2013-7-27,91.9,80.7,72.0,56.2,45.8,35.6,49,32,14,29.53,29.38,9,2,10,0.00
2013-7-28,97.5,81.8,66.9,62.0,48.4,40.7,76,36,16,29.47,29.35,6,1,6,0.00
2013-7-29,101.7,86.9,76.1,59.6,48.3,36.4,56,30,14,29.50,29.38,10,2,10,0.00
2013-7-30,105.1,88.9,76.6,53.9,44.5,35.7,45,24,12,29.56,29.44,13,2,13,0.00
2013-7-31,106.7,90.2,77.2,56.4,44.1,38.7,39,22,11,29.56,29.41,10,2,10,0.00
2013-8-1,106.0,90.9,75.9,54.3,45.5,37.9,43,23,11,29.50,29.38,6,1,6,0.00
2013-8-2,107.8,92.1,76.8,49.5,41.9,31.1,38,20,9,29.44,29.35,11,2,11,0.00
2013-8-3,104.0,90.0,76.3,49.5,40.8,31.0,37,20,9,29.50,29.38,10,2,10,0.00
2013-8-4,104.0,89.7,77.2,53.9,43.0,32.8,43,22,9,29.56,29.41,10,1,10,0.75
2013-8-5,105.3,91.0,77.9,50.0,40.6,31.0,37,20,9,29.50,29.32,10,2,10,0.00
2013-8-6,106.9,91.7,77.0,51.0,40.7,31.1,40,19,9,29.41,29.26,10,2,10,0.00
2013-8-7,108.3,92.5,77.7,49.8,41.1,31.0,37,19,8,29.38,29.26,10,2,10,0.00
2013-8-8,108.3,91.3,78.1,52.7,41.0,30.5,41,19,9,29.41,29.26,10,2,11,0.00
2013-8-9,106.5,91.0,79.2,48.4,39.9,31.0,33,18,9,29.47,29.32,9,2,10,0.00
2013-8-10,101.5,86.8,73.2,60.5,46.7,36.0,62,28,12,29.56,29.47,9,2,9,0.00
2013-8-11,105.8,89.2,73.4,51.4,43.5,32.8,45,23,9,29.59,29.44,8,1,8,0.75
2013-8-12,104.4,89.3,74.5,52.8,43.8,32.7,45,23,10,29.56,29.41,9,1,9,0.00
2013-8-13,103.8,86.0,73.4,74.4,47.0,38.6,80,30,12,29.56,29.41,13,2,13,0.12
2013-8-14,95.4,80.2,72.1,73.5,60.7,43.4,84,59,17,29.59,29.44,13,1,13,0.83
2013-8-15,91.0,80.9,70.7,63.7,46.7,40.5,73,34,18,29.62,29.50,8,1,8,0.83
2013-8-16,90.0,74.8,67.6,54.8,44.4,38.8,62,35,18,29.65,29.50,8,1,8,0.00
2013-8-17,91.6,77.8,63.9,48.6,39.7,32.2,55,28,14,29.71,29.56,9,1,9,0.00
2013-8-18,94.6,79.5,66.0,45.0,40.2,35.2,44,26,14,29.74,29.62,6,0,6,0.00
2013-8-19,97.7,82.8,69.3,45.5,38.4,30.6,40,23,11,29.74,29.62,8,1,8,0.00
2013-8-20,99.7,83.4,67.8,45.2,37.5,30.3,43,22,10,29.77,29.65,7,1,7,0.00
2013-8-21,99.9,84.1,71.1,50.9,42.8,35.5,48,26,13,29.85,29.74,9,1,9,0.00
2013-8-22,101.8,86.7,74.7,50.9,43.5,36.1,42,24,12,29.88,29.74,8,1,8,0.00
2013-8-23,102.6,88.7,77.2,51.2,43.5,32.7,40,23,10,29.88,29.77,8,1,8,0.00
2013-8-24,103.3,88.4,75.2,48.7,41.8,32.7,36,22,10,29.97,29.83,8,1,8,0.00
2013-8-25,98.6,86.8,74.5,49.5,42.5,31.1,41,23,13,30.09,29.97,8,1,8,0.00
2013-8-26,98.6,84.8,73.0,51.4,43.4,31.1,45,25,11,30.15,30.00,9,1,9,0.00
2013-8-27,98.8,82.0,71.8,59.6,49.0,37.9,65,35,13,30.12,30.03,10,2,10,0.00
2013-8-28,102.0,84.4,70.2,54.4,42.9,31.0,57,28,10,30.15,30.03,8,1,8,0.00
2013-8-29,102.6,84.7,74.1,46.2,40.1,31.0,34,22,9,30.15,30.00,9,1,9,0.00
2013-8-30,106.2,89.7,74.5,44.8,37.6,30.5,32,18,9,30.06,29.94,9,1,9,0.00
2013-8-31,107.2,90.3,75.4,45.6,37.2,30.3,32,17,9,30.00,29.88,8,1,8,0.00
2013-9-1,106.5,90.6,75.7,68.9,40.5,31.1,77,21,9,30.00,29.85,6,1,9,0.04
2013-9-2,93.4,81.0,72.9,69.8,53.0,40.5,83,41,17,30.12,29.94,6,1,6,0.08
2013-9-3,100.0,84.6,72.0,52.8,41.9,28.2,44,25,11,30.12,29.97,10,1,10,0.00
2013-9-4,104.5,86.5,69.6,47.0,39.5,31.1,42,21,10,30.15,30.00,7,1,8,0.00
2013-9-5,102.4,87.3,73.8,49.9,41.7,30.3,42,23,10,30.21,30.09,6,1,6,0.00
2013-9-6,104.4,87.4,74.3,49.1,40.1,31.2,40,21,9,30.21,30.06,8,1,8,0.00
2013-9-7,102.2,86.0,74.7,51.5,42.5,31.2,44,24,10,30.18,30.03,8,1,8,0.00
2013-9-8,98.8,83.5,69.1,55.1,42.6,32.5,61,27,10,30.12,29.97,8,1,8,0.00
2013-9-9,98.4,84.0,69.6,53.7,43.3,32.5,57,27,11,30.15,30.00,11,2,11,0.00
2013-9-10,96.4,82.2,72.7,53.7,44.4,34.9,51,29,14,30.21,30.09,9,1,9,0.00
2013-9-11,99.1,82.7,69.6,50.8,43.2,35.6,50,27,13,30.24,30.12,8,1,8,0.00
2013-9-12,99.9,84.4,71.1,46.8,41.5,35.8,42,24,13,30.21,30.06,5,0,7,0.00
2013-9-13,100.4,85.9,72.7,48.4,41.4,32.7,42,23,10,30.12,29.97,8,1,8,0.00
2013-9-14,95.9,84.6,75.0,45.4,40.2,34.5,33,22,14,30.12,30.00,8,2,8,0.00
2013-9-15,96.6,84.2,73.0,54.9,40.1,35.0,38,22,14,30.18,30.03,6,1,6,0.00
2013-9-16,98.4,84.5,72.0,48.1,39.5,31.0,41,22,11,30.24,30.09,6,1,6,0.00
2013-9-17,97.0,85.0,74.5,46.2,39.3,32.2,33,21,11,30.21,30.06,8,1,8,0.00
2013-9-18,100.4,86.4,76.1,48.8,39.6,30.3,37,21,10,30.18,30.00,9,1,9,0.00
2013-9-19,95.4,81.7,70.5,67.4,48.1,37.1,84,35,16,30.15,30.00,9,1,9,0.67
2013-9-20,74.3,71.5,68.9,69.8,64.8,55.4,92,80,63,30.09,29.97,10,2,10,1.65
2013-9-21,81.0,69.0,59.2,56.5,38.0,24.9,72,37,14,30.15,30.03,11,3,11,0.08
2013-9-22,81.3,67.6,54.7,51.8,37.0,27.0,77,37,14,30.12,29.97,9,1,9,0.08
2013-9-23,85.1,70.3,57.7,40.6,35.9,27.3,52,31,13,30.03,29.91,8,1,8,0.08
2013-9-24,91.4,75.9,64.0,53.0,38.7,27.0,64,30,12,30.12,29.97,10,1,10,0.08
2013-9-25,92.1,75.7,59.7,39.0,33.2,28.1,40,23,12,30.09,29.94,8,0,8,0.08
2013-9-26,92.7,78.8,66.9,41.6,33.6,28.1,35,21,12,30.06,29.94,12,1,12,0.08
2013-9-27,93.0,79.2,67.6,52.3,46.2,35.6,49,32,19,30.12,30.00,9,2,9,0.00
2013-9-28,88.0,75.3,66.2,67.4,55.9,46.0,83,52,30,30.24,30.03,12,2,12,0.71
2013-9-29,81.7,69.3,61.7,51.0,37.3,24.7,64,33,15,30.27,30.09,10,2,10,0.00
2013-9-30,83.7,69.6,57.4,46.4,35.6,28.6,50,31,14,30.12,29.97,6,1,6,0.00
2013-10-1,87.1,73.6,62.2,56.3,48.5,37.5,81,46,18,30.15,30.00,8,1,8,0.00
2013-10-2,89.8,78.4,70.0,66.2,53.8,42.2,84,47,20,30.18,30.03,10,2,10,0.00
2013-10-3,90.5,79.7,71.4,66.5,52.0,40.5,81,42,19,30.12,29.97,8,2,10,0.00
2013-10-4,89.2,78.7,70.2,64.6,50.5,40.5,82,42,19,30.15,30.00,10,2,10,0.00
2013-10-5,77.4,64.4,50.5,57.4,41.4,22.6,86,47,24,30.30,30.03,17,3,17,0.24
2013-10-6,73.4,59.0,46.6,47.6,30.0,14.4,90,44,14,30.33,30.24,17,3,17,0.00
2013-10-7,78.4,62.8,49.5,29.8,25.1,20.5,38,25,15,30.39,30.24,8,0,8,0.00
2013-10-8,79.5,64.5,48.9,32.4,26.4,21.4,43,25,15,30.33,30.18,8,1,8,0.00
2013-10-9,81.5,66.8,54.3,42.5,34.8,29.1,63,33,17,30.30,30.18,10,1,10,0.00
2013-10-10,84.0,70.3,58.3,55.7,41.4,34.8,81,39,19,30.27,30.09,10,2,10,0.00
2013-10-11,88.9,76.2,67.3,55.5,49.0,43.3,65,40,22,30.18,30.03,11,2,11,0.00
2013-10-12,91.0,77.3,68.0,69.0,55.7,43.3,83,51,21,30.30,30.09,8,1,8,0.00
2013-10-13,80.8,71.2,65.5,61.8,52.7,45.8,81,54,30,30.45,30.24,6,0,6,0.00
2013-10-14,80.2,71.3,68.0,68.2,61.9,53.0,92,74,41,30.36,30.15,8,2,8,0.87
2013-10-15,80.1,65.1,52.2,66.0,56.8,49.9,93,76,37,30.33,30.12,12,3,12,0.87
2013-10-16,66.9,57.7,52.0,52.2,38.6,26.0,93,57,24,30.36,30.24,10,3,10,0.20
2013-10-17,67.3,51.1,42.4,37.7,33.5,26.4,81,53,22,30.36,30.24,6,0,8,0.00
2013-10-18,72.7,59.9,50.0,44.7,37.5,30.4,78,46,22,30.36,30.12,17,1,17,0.00
2013-10-19,63.1,50.5,39.7,36.4,26.0,18.4,76,41,21,30.50,30.33,16,3,16,0.00
2013-10-20,69.4,55.5,41.9,35.8,29.3,25.4,73,40,22,30.36,30.15,10,1,10,0.00
2013-10-21,74.7,59.6,50.9,45.9,37.6,31.8,75,45,30,30.39,30.15,13,2,13,0.00
2013-10-22,72.7,56.7,41.2,39.2,29.2,20.4,78,41,16,30.47,30.33,10,1,10,0.00
2013-10-23,79.3,63.0,49.6,36.7,29.9,26.7,46,30,15,30.45,30.33,7,1,7,0.00
2013-10-24,78.8,64.9,53.1,35.3,30.0,26.2,40,28,17,30.59,22.94,9,1,9,0.00
2013-10-25,69.1,58.0,48.6,36.6,30.4,27.2,61,36,23,30.65,22.44,7,1,7,0.00
2013-10-26,78.6,64.3,54.7,54.4,41.1,33.5,87,44,27,30.53,17.72,10,2,10,0.35
2013-10-27,72.0,62.7,56.7,58.7,47.9,35.7,92,64,29,29.21,17.72,5,0,5,0.00
2013-10-28,79.2,66.9,56.3,59.4,50.8,43.3,90,60,31,29.23,29.15,11,1,11,0.00
2013-10-29,79.9,71.7,67.6,59.6,54.5,47.8,74,56,34,29.21,29.15,9,2,9,0.00
2013-10-30,72.9,69.4,65.8,65.1,58.9,51.8,85,70,49,29.18,28.97,11,2,11,0.08
2013-10-31,72.1,65.7,52.5,67.6,40.8,21.9,92,49,16,29.06,28.82,22,4,22,0.00
2013-11-1,73.8,60.6,48.7,34.6,27.9,20.1,54,31,16,29.26,28.97,13,2,13,0.00
2013-11-2,66.0,54.8,45.3,26.3,21.2,15.3,42,28,18,29.41,29.23,11,2,11,0.00
2013-11-3,68.4,54.4,42.8,30.5,22.3,18.8,41,30,17,29.35,29.09,9,1,9,0.00
2013-11-4,61.3,57.6,53.4,57.7,43.4,30.5,93,61,36,29.21,29.12,8,1,8,0.67
2013-11-5,69.1,65.2,59.7,64.4,61.1,56.6,93,87,66,29.18,29.06,9,1,9,0.08
2013-11-6,69.4,54.1,41.9,63.2,34.8,21.1,87,51,26,29.47,29.09,15,4,15,0.16
2013-11-7,62.1,47.6,35.4,33.2,24.2,17.4,77,43,19,29.59,29.47,8,1,8,0.00
2013-11-8,69.3,53.8,41.0,30.6,25.8,20.1,56,36,17,29.50,29.23,8,1,8,0.00
2013-11-9,70.3,60.3,54.0,37.6,31.7,24.7,50,34,25,29.35,29.23,10,2,10,0.00
2013-11-10,69.1,57.1,49.5,37.8,33.7,29.9,60,43,24,29.44,29.32,4,0,4,0.00
2013-11-11,71.6,57.4,45.3,44.5,35.4,31.0,75,47,24,29.41,29.29,8,0,8,0.00
2013-11-12,58.5,47.3,33.1,48.4,20.0,4.5,71,36,19,29.80,29.41,20,4,20,0.00
2013-11-13,50.2,36.6,24.8,13.2,10.5,6.6,53,35,21,29.77,29.47,6,0,6,0.00
2013-11-14,61.0,47.2,31.6,30.5,17.0,10.8,44,31,16,29.47,29.15,10,2,10,0.00
2013-11-15,71.4,58.9,47.5,50.6,38.6,30.4,88,51,23,29.15,28.97,10,2,10,0.00
2013-11-16,78.6,68.8,60.8,60.2,46.8,37.5,77,48,24,29.00,28.85,11,3,11,0.00
2013-11-17,84.6,71.8,58.8,64.0,39.9,21.6,85,39,13,29.18,28.85,14,3,14,0.00
2013-11-18,71.6,59.3,50.7,22.3,16.8,13.5,26,19,14,29.29,29.15,8,1,8,0.00
2013-11-19,69.6,59.4,51.8,21.6,17.9,13.5,28,20,15,29.29,29.15,8,2,8,0.00
2013-11-20,67.6,57.7,45.9,40.3,27.8,19.4,48,32,23,29.15,29.00,10,2,10,0.00
2013-11-21,76.3,64.0,40.5,63.5,52.8,35.1,89,69,40,29.35,29.06,16,2,16,0.79
2013-11-22,40.6,34.8,33.1,35.4,25.4,16.9,87,69,51,29.56,29.35,18,7,18,0.24
2013-11-23,41.4,36.4,34.0,31.1,24.4,10.5,86,64,37,29.65,29.56,14,5,14,0.08
2013-11-24,36.3,33.9,31.6,15.7,11.1,6.5,48,39,31,29.68,29.44,11,3,11,0.04
2013-11-25,39.4,34.9,32.2,32.0,25.1,12.1,86,68,40,29.47,29.26,13,2,13,0.00
2013-11-26,50.7,40.7,34.3,31.3,18.6,8.1,88,46,21,29.50,29.26,21,7,21,0.00
2013-11-27,44.6,34.0,28.2,11.4,4.9,0.7,42,30,20,29.59,29.44,9,3,10,0.00
2013-11-28,52.5,38.2,25.5,13.6,9.7,2.8,44,32,18,29.53,29.44,8,1,8,0.00
2013-11-29,56.5,42.1,29.5,25.2,18.8,11.1,60,40,25,29.59,29.44,8,1,8,0.00
2013-11-30,69.1,52.8,39.7,49.5,33.1,23.9,84,51,24,29.44,29.26,13,2,13,0.00
2013-12-1,71.2,59.5,51.6,51.9,42.9,34.0,85,58,26,29.26,29.06,12,2,12,0.00
2013-12-2,67.1,53.2,43.2,50.3,33.3,19.4,87,54,17,29.06,28.82,8,1,8,0.00
2013-12-3,75.7,58.4,44.2,29.4,23.4,16.5,55,29,13,28.82,28.67,11,2,11,0.00
2013-12-4,78.1,62.6,50.0,35.3,25.0,18.0,36,24,15,29.03,28.73,11,2,11,0.00
2013-12-5,49.8,34.0,27.7,22.5,10.1,0.8,72,39,25,29.29,29.03,22,7,22,0.04
2013-12-6,32.2,26.0,21.9,23.2,12.4,6.8,76,56,43,29.62,29.23,9,0,9,0.08
2013-12-7,24.6,21.5,17.2,15.1,6.0,0.5,69,51,39,29.65,29.38,0,0,0,0.00
2013-12-8,34.7,29.5,23.7,28.5,18.9,11.1,85,65,45,29.38,29.18,0,0,0,0.04
2013-12-9,34.5,31.5,26.2,28.6,17.3,5.7,87,59,37,29.53,29.26,0,0,0,0.00
2013-12-10,35.6,25.8,16.7,10.7,4.7,-1.1,54,41,25,29.62,29.44,8,0,8,0.04
2013-12-11,48.7,33.5,22.8,18.1,12.6,9.1,66,44,21,29.68,29.41,9,2,9,0.28
2013-12-12,46.9,35.1,22.8,18.9,14.8,10.8,63,45,27,29.68,29.41,6,1,6,0.12
2013-12-13,46.0,42.4,37.0,42.4,27.1,17.1,90,57,38,29.41,28.91,10,2,10,0.04
2013-12-14,45.1,40.2,30.0,42.4,24.9,10.1,90,58,29,29.44,28.91,17,5,17,0.00
2013-12-15,58.1,40.7,27.0,19.1,14.6,10.1,56,37,17,29.47,29.32,9,1,9,0.00
2013-12-16,63.9,47.5,35.2,20.6,17.2,14.1,44,31,18,29.35,29.23,10,2,10,0.00
2013-12-17,66.7,52.9,38.1,22.7,18.9,13.0,46,28,16,29.41,29.29,7,1,7,0.00
2013-12-18,67.1,53.3,37.9,30.6,24.3,20.0,54,34,17,29.35,29.09,12,2,12,0.00
2013-12-19,72.7,61.5,51.1,48.6,38.6,30.4,83,45,25,29.09,28.88,17,5,17,0.00
2013-12-20,70.2,54.0,33.3,52.1,38.2,26.0,87,57,29,28.97,28.85,15,4,15,0.00
2013-12-21,54.3,43.2,33.1,49.8,38.4,29.4,91,84,52,28.91,28.70,12,2,12,1.54
2013-12-22,44.4,36.2,27.3,41.7,17.6,9.5,90,49,29,29.50,28.88,15,6,15,0.00
2013-12-23,45.3,32.1,21.6,22.1,13.1,8.3,75,48,25,29.65,29.47,8,1,8,0.00
2013-12-24,50.9,36.2,22.8,23.1,16.4,12.9,79,47,26,29.65,29.32,10,2,10,0.00
2013-12-25,57.4,42.3,32.0,26.7,20.0,14.7,72,43,19,29.53,29.35,12,3,12,0.00
2013-12-26,52.0,37.6,27.9,31.5,19.3,8.6,83,52,21,29.56,29.44,8,1,8,0.00
2013-12-27,60.3,41.3,28.6,31.4,21.7,15.9,79,49,22,29.56,29.41,6,1,6,0.00
2013-12-28,61.3,46.3,35.4,42.3,25.4,19.5,86,49,24,29.41,29.09,8,2,8,0.00
2013-12-29,49.6,37.2,28.9,40.3,22.6,10.4,85,57,38,29.41,29.06,18,4,18,0.00
2013-12-30,41.9,32.2,25.9,10.4,4.9,1.0,43,31,23,29.50,29.35,10,3,10,0.00
2013-12-31,51.6,36.6,23.5,14.2,10.1,5.2,53,35,21,29.53,29.29,9,2,9,0.00
2014-1-1,67.6,47.0,31.1,28.2,18.9,8.9,57,34,19,29.32,29.00,20,5,20,0.00
2014-1-2,40.3,30.3,23.4,9.8,3.1,-0.6,42,31,21,29.59,29.32,21,6,21,0.00